FW7858 Weather Reports


Display with metric or nautical units.
time (UTC)temp
F
wind
direction
speed
MPH
gust
MPH
rain 1hr
in
rain 24hr
in
rain mn
in
humidity
%
barometer
mb
20260904045016 70 5 5.0 10.0 0.00 0.03 0.03 90 1004.4
20260904044512 70 5 4.0 6.0 0.00 0.03 0.03 89 1004.4
20260904044012 71 355 2.0 6.0 0.00 0.03 0.03 90 1004.6
20260904043514 71 10 4.0 10.0 0.00 0.03 0.03 90 1004.7
20260904043012 71 5 5.0 10.0 0.00 0.03 0.03 89 1004.6
20260904042511 71 10 4.0 11.0 0.00 0.03 0.03 90 1004.5
20260904042010 72 5 5.0 11.0 0.00 0.03 0.03 90 1004.4
20260904041516 72 11 3.0 10.0 0.00 0.03 0.03 90 1004.3
20260904041010 72 5 2.0 9.0 0.00 0.03 0.03 90 1004.3
20260904040510 72 351 3.0 9.0 0.00 0.03 0.03 90 1004.2
20260904040019 72 355 4.0 9.0 0.00 0.03 0.03 91 1004.1
20260904035510 72 9 5.0 9.0 0.00 0.03 0.03 91 1004.1
20260904035012 72 13 4.0 9.0 0.00 0.03 0.03 91 1004.1
20260904034510 73 5 3.0 9.0 0.00 0.03 0.03 91 1004.1
20260904034011 73 360 4.0 9.0 0.00 0.03 0.03 91 1004.2
20260904033509 73 5 3.0 9.0 0.00 0.03 0.03 91 1004.1
20260904033010 73 5 3.0 9.0 0.00 0.03 0.03 91 1004.1
20260904032509 73 360 3.0 6.0 0.00 0.03 0.03 91 1004.0
20260904032008 73 5 3.0 6.0 0.00 0.03 0.03 91 1004.1
20260904031512 73 355 3.0 6.0 0.00 0.03 0.03 92 1004.1
20260904031008 73 9 3.0 6.0 0.00 0.03 0.03 92 1004.0
20260904030508 73 11 4.0 6.0 0.00 0.03 0.03 92 1004.1
20260904030010 73 5 3.0 5.0 0.00 0.03 0.03 92 1004.0
20260904025508 73 5 3.0 5.0 0.00 0.03 0.03 92 1004.0
20260904025008 73 5 2.0 8.0 0.00 0.03 0.03 93 1004.0
20260904024512 73 5 2.0 5.0 0.00 0.03 0.03 93 1003.9
20260904024008 73 5 3.0 5.0 0.00 0.03 0.03 93 1003.9
20260904023506 73 5 3.0 5.0 0.00 0.03 0.03 93 1003.8
20260904023013 72 5 3.0 5.0 0.00 0.03 0.03 93 1003.8
20260904022510 72 5 2.0 5.0 0.00 0.03 0.03 92 1003.7
20260904022008 72 5 2.0 4.0 0.00 0.03 0.03 92 1003.7
20260904021519 72 5 1.0 4.0 0.00 0.03 0.03 92 1003.7
20260904021005 72 5 0.0 2.0 0.00 0.03 0.03 92 1003.7
20260904020507 72 5 0.0 3.0 0.00 0.03 0.03 92 1003.8
20260904020006 72 5 0.0 5.0 0.00 0.03 0.03 92 1003.9
20260904015505 72 5 2.0 5.0 0.00 0.03 0.03 91 1003.8
20260904015005 72 355 2.0 5.0 0.00 0.03 0.03 91 1003.7
20260904014505 72 350 1.0 4.0 0.00 0.03 0.03 91 1003.6
20260904014005 72 355 2.0 5.0 0.00 0.03 0.03 91 1003.6
20260904013506 72 345 2.0 3.0 0.00 0.03 0.03 91 1003.6
20260904013005 72 344 0.0 2.0 0.01 0.03 0.03 91 1003.4
20260904012505 73 344 0.0 4.0 0.02 0.03 0.03 90 1003.2
20260904012004 73 344 0.0 4.0 0.03 0.03 0.03 90 1003.1
20260904011504 73 302 0.0 4.0 0.03 0.03 0.03 90 1003.0
20260904011003 73 302 2.0 4.0 0.03 0.03 0.03 90 1003.0
20260904010503 73 289 1.0 4.0 0.03 0.03 0.03 90 1002.9
20260904010002 73 287 2.0 4.0 0.03 0.03 0.03 89 1002.8
20260904005502 73 360 0.0 6.0 0.03 0.03 0.03 89 1003.0
20260904005003 73 5 2.0 6.0 0.03 0.03 0.03 88 1003.0
20260904004502 73 11 3.0 6.0 0.03 0.03 0.03 88 1003.2
20260904004000 74 5 1.0 4.0 0.03 0.03 0.03 87 1003.2
20260904003601 74 11 0.0 5.0 0.03 0.03 0.03 87 1003.5
20260904003100 75 11 1.0 8.0 0.02 0.02 0.02 84 1003.8
20260904002559 75 5 2.0 8.0 0.01 0.01 0.01 83 1003.7
20260904002058 75 5 2.0 6.0 0.00 0.00 0.00 82 1003.6
20260904001609 76 360 2.0 10.0 0.00 0.00 0.00 81 1003.6
20260904001059 76 13 3.0 10.0 0.00 0.00 0.00 81 1003.4
20260904001004 76 9 4.0 10.0 0.00 0.00 0.00 81 1003.3
20260904000600 76 13 4.0 8.0 0.00 0.00 0.00 80 1003.0
20260904000058 76 13 4.0 9.0 0.00 0.00 0.00 80 1003.0
20260903235558 76 19 4.0 9.0 0.00 0.00 0.00 80 1002.7
20260903235058 76 9 3.0 9.0 0.00 0.00 0.00 80 1003.0
20260903234558 76 9 4.0 9.0 0.00 0.00 0.00 79 1002.9
20260903234058 76 5 5.0 9.0 0.00 0.00 0.00 79 1002.7
20260903233557 77 9 3.0 8.0 0.00 0.00 0.00 79 1003.0
20260903233056 77 11 4.0 8.0 0.00 0.00 0.00 79 1003.0
20260903232600 77 9 3.0 8.0 0.00 0.00 0.00 79 1002.9
20260903232057 77 11 2.0 8.0 0.00 0.00 0.00 78 1002.8
20260903231604 77 10 3.0 8.0 0.00 0.00 0.00 78 1002.7
20260903231057 77 22 4.0 9.0 0.00 0.00 0.00 78 1002.6
20260903230556 78 5 4.0 10.0 0.00 0.00 0.00 77 1002.5
20260903230056 78 5 5.0 10.0 0.00 0.00 0.00 77 1002.6
20260903225556 78 13 3.0 10.0 0.00 0.00 0.00 77 1002.5
20260903225055 78 11 4.0 11.0 0.00 0.00 0.00 76 1002.5
20260903224556 78 5 5.0 11.0 0.00 0.00 0.00 75 1002.7
20260903224055 78 22 4.0 12.0 0.00 0.00 0.00 75 1002.7
20260903223555 78 19 6.0 13.0 0.00 0.00 0.00 76 1002.8
20260903223055 78 355 7.0 13.0 0.00 0.00 0.00 76 1002.7
20260903222555 78 360 7.0 13.0 0.00 0.00 0.00 75 1002.7
20260903222155 78 348 5.0 13.0 0.00 0.00 0.00 75 1002.6
20260903221553 79 5 7.0 17.0 0.00 0.00 0.00 72 1002.7
20260903221053 82 5 9.0 17.0 0.00 0.00 0.00 69 1003.1
20260903220553 84 342 3.0 8.0 0.00 0.00 0.00 69 1002.8
20260903220058 85 5 3.0 9.0 0.00 0.00 0.00 68 1002.4
20260903215555 86 346 5.0 9.0 0.00 0.00 0.00 66 1002.4
20260903215055 86 347 3.0 5.0 0.00 0.00 0.00 66 1002.3
20260903214552 87 346 2.0 5.0 0.00 0.00 0.00 66 1002.0
20260903214054 87 331 3.0 5.0 0.00 0.00 0.00 65 1001.6
20260903213554 87 286 2.0 5.0 0.00 0.00 0.00 65 1001.5
20260903213102 87 295 2.0 5.0 0.00 0.00 0.00 64 1001.5
20260903212550 87 338 1.0 4.0 0.00 0.00 0.00 65 1001.6
20260903212050 87 338 2.0 5.0 0.00 0.00 0.00 64 1001.6
20260903211549 87 57 2.0 5.0 0.00 0.00 0.00 64 1001.7
20260903211049 87 274 2.0 6.0 0.00 0.00 0.00 64 1001.7
20260903210549 88 287 1.0 4.0 0.00 0.00 0.00 64 1001.7
20260903210051 88 78 1.0 4.0 0.00 0.00 0.00 63 1001.6
20260903205547 88 335 1.0 3.0 0.00 0.00 0.00 63 1001.6
20260903205047 88 312 1.0 9.0 0.00 0.00 0.00 63 1001.7
20260903204547 88 197 2.0 9.0 0.00 0.00 0.00 62 1001.7
20260903204046 88 210 2.0 9.0 0.00 0.00 0.00 62 1001.7
20260903203545 88 205 1.0 9.0 0.00 0.00 0.00 62 1001.7
20260903203052 88 28 3.0 9.0 0.00 0.00 0.00 62 1001.8
20260903202543 88 267 1.0 7.0 0.00 0.00 0.00 62 1002.0
20260903202043 88 226 1.0 7.0 0.00 0.00 0.00 61 1002.0
20260903201543 88 232 2.0 6.0 0.00 0.00 0.00 62 1002.0
20260903201045 88 281 2.0 7.0 0.00 0.00 0.00 61 1002.1
20260903200543 89 279 2.0 7.0 0.00 0.00 0.00 60 1002.0
20260903200040 90 286 2.0 10.0 0.00 0.00 0.00 59 1002.1
20260903195539 90 190 3.0 10.0 0.00 0.00 0.00 59 1002.2
20260903195040 89 273 1.0 6.0 0.00 0.00 0.00 61 1002.2
20260903194537 89 322 2.0 6.0 0.00 0.00 0.00 60 1002.1
20260903194035 89 276 1.0 8.0 0.00 0.00 0.00 61 1002.2
20260903193535 88 223 3.0 8.0 0.00 0.00 0.00 62 1002.1
20260903193035 88 327 2.0 5.0 0.00 0.00 0.00 62 1002.0
20260903192533 88 345 2.0 8.0 0.00 0.00 0.00 64 1002.2
20260903192031 87 328 2.0 8.0 0.00 0.00 0.00 64 1002.2
20260903191538 87 324 2.0 9.0 0.00 0.00 0.00 63 1002.2
20260903191029 88 256 2.0 9.0 0.00 0.00 0.00 63 1002.2
20260903190529 87 265 2.0 10.0 0.00 0.00 0.00 64 1002.2
20260903190027 87 115 2.0 8.0 0.00 0.00 0.00 64 1002.4
20260903185526 87 295 3.0 8.0 0.00 0.00 0.00 63 1002.5
20260903185025 87 270 2.0 6.0 0.00 0.00 0.00 64 1002.5
20260903184524 87 269 1.0 7.0 0.00 0.00 0.00 64 1002.6
20260903184023 86 325 3.0 10.0 0.00 0.00 0.00 64 1002.7
20260903183521 87 212 6.0 10.0 0.00 0.00 0.00 63 1002.7
20260903183027 87 195 3.0 10.0 0.00 0.00 0.00 64 1002.9
20260903182519 87 176 3.0 6.0 0.00 0.00 0.00 65 1003.0
20260903182017 86 265 2.0 7.0 0.00 0.00 0.00 65 1003.1
20260903181517 86 244 3.0 8.0 0.00 0.00 0.00 65 1003.1
20260903181015 86 277 2.0 8.0 0.00 0.00 0.00 66 1003.1
20260903180514 86 300 2.0 7.0 0.00 0.00 0.00 66 1003.2
20260903180024 85 178 2.0 7.0 0.00 0.00 0.00 67 1003.2
20260903175511 85 155 2.0 7.0 0.00 0.00 0.00 67 1003.1
20260903175011 85 211 2.0 10.0 0.00 0.00 0.00 67 1003.1
20260903174509 84 256 3.0 10.0 0.00 0.00 0.00 67 1003.2
20260903174009 84 219 3.0 8.0 0.00 0.00 0.00 67 1003.3
20260903173511 84 298 3.0 8.0 0.00 0.00 0.00 68 1003.3
20260903173006 84 265 3.0 9.0 0.00 0.00 0.00 67 1003.3
20260903172505 83 93 2.0 8.0 0.00 0.00 0.00 68 1003.5
20260903172006 83 114 3.0 10.0 0.00 0.00 0.00 69 1003.5
20260903171503 82 259 3.0 10.0 0.00 0.00 0.00 69 1003.6
20260903171002 83 349 2.0 10.0 0.00 0.00 0.00 68 1003.7
20260903170601 83 186 2.0 10.0 0.00 0.00 0.00 68 1003.7
20260903170059 83 12 3.0 9.0 0.00 0.00 0.00 68 1003.9
20260903165558 83 216 3.0 9.0 0.00 0.00 0.00 70 1003.9
20260903165056 83 130 3.0 10.0 0.00 0.00 0.00 69 1004.0
20260903164556 82 189 4.0 10.0 0.00 0.00 0.00 71 1003.9
20260903164054 81 178 2.0 6.0 0.00 0.00 0.00 74 1004.0
20260903163552 81 93 2.0 6.0 0.00 0.00 0.00 75 1004.0
20260903163119 80 339 2.0 8.0 0.00 0.00 0.00 77 1004.1
20260903162552 80 294 3.0 8.0 0.00 0.00 0.00 77 1004.1
20260903162049 79 281 2.0 4.0 0.00 0.00 0.00 78 1004.2
20260903161548 79 313 1.0 6.0 0.00 0.00 0.00 79 1004.3
20260903161047 78 259 3.0 7.0 0.00 0.00 0.00 79 1004.3
20260903160545 78 327 2.0 6.0 0.00 0.00 0.00 79 1004.3
20260903160048 78 258 2.0 10.0 0.00 0.00 0.00 79 1004.2
20260903155543 78 297 2.0 8.0 0.00 0.00 0.00 79 1004.2
20260903155045 78 273 1.0 8.0 0.00 0.00 0.00 80 1004.2
20260903154541 77 307 2.0 8.0 0.00 0.00 0.00 80 1004.2
20260903154039 77 190 2.0 6.0 0.00 0.00 0.00 79 1004.3
20260903153538 77 306 1.0 5.0 0.00 0.00 0.00 81 1004.4
20260903153036 76 231 2.0 5.0 0.00 0.00 0.00 81 1004.4
20260903152535 76 323 2.0 5.0 0.00 0.00 0.00 81 1004.4
20260903152036 75 355 1.0 4.0 0.00 0.00 0.00 81 1004.5
20260903151533 75 146 2.0 5.0 0.00 0.00 0.00 81 1004.5
20260903151034 75 315 2.0 5.0 0.00 0.00 0.00 81 1004.5
20260903150531 75 284 2.0 7.0 0.00 0.00 0.00 82 1004.6
20260903150029 74 273 2.0 7.0 0.00 0.00 0.00 82 1004.5
20260903145527 74 306 3.0 6.0 0.00 0.00 0.00 81 1004.5
20260903145030 74 275 2.0 6.0 0.00 0.00 0.00 81 1004.6
20260903144526 74 347 1.0 5.0 0.00 0.00 0.00 82 1004.6
20260903144025 73 355 2.0 8.0 0.00 0.00 0.00 82 1004.8
20260903143523 73 314 4.0 8.0 0.00 0.00 0.00 81 1004.8
20260903143022 73 331 3.0 9.0 0.00 0.00 0.00 82 1004.8
20260903142526 72 355 5.0 9.0 0.00 0.00 0.00 82 1004.9
20260903142022 72 346 4.0 8.0 0.00 0.00 0.00 82 1004.9
20260903141519 72 355 2.0 8.0 0.00 0.00 0.00 82 1005.1
20260903141019 72 360 3.0 8.0 0.00 0.00 0.00 82 1005.1
20260903140518 72 355 2.0 8.0 0.00 0.00 0.00 82 1005.1
20260903140017 71 5 4.0 8.0 0.00 0.00 0.00 82 1005.1
20260903135515 71 5 3.0 8.0 0.00 0.00 0.00 83 1005.2
20260903135015 71 11 3.0 8.0 0.00 0.00 0.00 83 1005.3
20260903134516 71 355 3.0 8.0 0.00 0.00 0.00 83 1005.2
20260903134013 70 337 2.0 6.0 0.00 0.00 0.00 83 1005.2
20260903133513 70 345 3.0 8.0 0.00 0.00 0.00 83 1005.1
20260903133015 70 360 3.0 8.0 0.00 0.00 0.00 83 1005.3
20260903132514 70 360 3.0 10.0 0.00 0.00 0.00 84 1005.3
20260903132012 69 355 4.0 10.0 0.00 0.00 0.00 83 1005.4
20260903131511 69 5 4.0 8.0 0.00 0.00 0.00 83 1005.5
20260903131011 69 355 4.0 8.0 0.00 0.00 0.00 84 1005.5
20260903130510 69 10 2.0 5.0 0.00 0.00 0.00 84 1005.5
20260903130009 69 298 2.0 8.0 0.00 0.00 0.00 83 1005.6
20260903125509 69 355 2.0 9.0 0.00 0.00 0.00 83 1005.6
20260903125009 69 348 4.0 10.0 0.00 0.00 0.00 83 1005.7
20260903124508 69 5 5.0 10.0 0.00 0.00 0.00 83 1005.8
20260903124008 69 5 3.0 6.0 0.00 0.00 0.00 83 1005.7
20260903123511 68 360 3.0 10.0 0.00 0.00 0.00 83 1005.8
20260903123007 68 360 4.0 10.0 0.00 0.00 0.00 83 1005.8
20260903122510 68 355 5.0 10.0 0.00 0.00 0.00 82 1005.9
20260903122006 68 355 3.0 9.0 0.00 0.00 0.00 82 1005.8
20260903121516 68 355 2.0 8.0 0.00 0.00 0.00 82 1005.8
20260903121006 68 5 3.0 10.0 0.00 0.00 0.00 82 1005.7
20260903120505 68 360 4.0 9.0 0.00 0.00 0.00 82 1005.8
20260903120005 68 360 4.0 8.0 0.00 0.00 0.00 82 1005.8
20260903115505 68 355 4.0 10.0 0.00 0.00 0.00 82 1005.7
20260903115003 68 5 4.0 10.0 0.00 0.00 0.00 82 1005.8
20260903114503 68 355 3.0 10.0 0.00 0.00 0.00 82 1005.8
20260903114004 68 360 5.0 9.0 0.00 0.00 0.00 82 1006.0
20260903113501 68 5 5.0 9.0 0.00 0.00 0.00 81 1006.1
20260903113002 69 355 4.0 8.0 0.00 0.00 0.00 81 1006.2
20260903112501 69 355 3.0 8.0 0.00 0.00 0.00 81 1006.1
20260903112101 69 351 4.0 8.0 0.00 0.00 0.00 81 1006.2
20260903111602 69 355 4.0 9.0 0.00 0.00 0.00 80 1006.4
20260903111100 69 360 4.0 9.0 0.00 0.00 0.00 80 1006.4
20260903111002 69 360 4.0 9.0 0.00 0.00 0.00 80 1006.4
20260903110602 69 350 4.0 9.0 0.00 0.00 0.00 80 1006.3
20260903110103 69 338 3.0 10.0 0.00 0.00 0.00 80 1006.2
20260903105600 69 355 5.0 8.0 0.00 0.00 0.00 80 1006.1
20260903105058 69 349 4.0 9.0 0.00 0.00 0.00 80 1006.1
20260903104558 69 355 4.0 9.0 0.00 0.00 0.00 80 1006.2
20260903104058 69 9 4.0 9.0 0.00 0.00 0.00 79 1006.2
20260903103559 69 9 5.0 9.0 0.00 0.00 0.00 80 1006.2
20260903103057 69 11 4.0 6.0 0.00 0.00 0.00 79 1006.3
20260903102557 69 5 3.0 10.0 0.00 0.00 0.00 79 1006.3
20260903102055 69 360 4.0 10.0 0.00 0.00 0.00 79 1006.3
20260903101555 69 355 4.0 8.0 0.00 0.00 0.00 79 1006.3
20260903101056 69 355 2.0 9.0 0.00 0.00 0.00 79 1006.3
20260903100554 69 337 3.0 9.0 0.00 0.00 0.00 79 1006.4
20260903100054 69 360 4.0 8.0 0.00 0.00 0.00 79 1006.4
20260903095553 69 360 3.0 9.0 0.00 0.00 0.00 79 1006.5
20260903095052 69 5 3.0 10.0 0.00 0.00 0.00 79 1006.4
20260903094555 69 360 3.0 9.0 0.00 0.00 0.00 79 1006.3
20260903094053 69 355 3.0 6.0 0.00 0.00 0.00 79 1006.4
20260903093552 69 355 3.0 10.0 0.00 0.00 0.00 79 1006.5
20260903093053 69 360 4.0 10.0 0.00 0.00 0.00 79 1006.5
20260903092550 69 360 4.0 8.0 0.00 0.00 0.00 79 1006.5
20260903092051 69 360 3.0 8.0 0.00 0.00 0.00 79 1006.6
20260903091549 69 351 3.0 8.0 0.00 0.00 0.00 79 1006.7
20260903091049 69 5 3.0 8.0 0.00 0.00 0.00 79 1006.7
20260903090548 69 5 3.0 6.0 0.00 0.00 0.00 79 1006.8
20260903090050 68 9 2.0 6.0 0.00 0.00 0.00 79 1006.9
20260903085548 69 9 3.0 10.0 0.00 0.00 0.00 78 1006.8
20260903085048 68 9 3.0 8.0 0.00 0.00 0.00 79 1006.9
20260903084547 68 355 4.0 8.0 0.00 0.00 0.00 79 1006.9
20260903084047 68 5 2.0 6.0 0.00 0.00 0.00 78 1006.8
20260903083550 68 355 3.0 6.0 0.00 0.00 0.00 78 1006.8
20260903083048 68 5 3.0 6.0 0.00 0.00 0.00 78 1006.7
20260903082546 68 5 3.0 6.0 0.00 0.00 0.00 78 1006.7
20260903082045 69 355 2.0 8.0 0.00 0.00 0.00 78 1006.7
20260903081545 69 5 2.0 8.0 0.00 0.00 0.00 78 1006.7
20260903081045 69 355 2.0 6.0 0.00 0.00 0.00 78 1006.8
20260903080542 69 360 2.0 6.0 0.00 0.00 0.00 78 1006.9
20260903080041 69 5 3.0 6.0 0.00 0.00 0.00 78 1007.0
20260903075540 69 355 2.0 6.0 0.00 0.00 0.00 78 1007.1
20260903075040 69 355 3.0 6.0 0.00 0.00 0.00 77 1007.2
20260903074538 69 351 2.0 8.0 0.00 0.00 0.00 77 1007.3
20260903074038 69 5 3.0 8.0 0.00 0.00 0.00 77 1007.3
20260903073538 69 9 2.0 6.0 0.00 0.00 0.00 77 1007.3
20260903073047 69 355 3.0 9.0 0.00 0.00 0.00 77 1007.4
20260903072538 69 360 3.0 9.0 0.00 0.00 0.00 77 1007.4
20260903072039 69 360 3.0 8.0 0.00 0.00 0.00 77 1007.5
20260903071537 69 355 3.0 9.0 0.00 0.00 0.00 77 1007.5
20260903071035 69 5 4.0 9.0 0.00 0.00 0.00 77 1007.5
20260903070535 69 360 2.0 6.0 0.00 0.00 0.00 77 1007.6
20260903070035 69 5 2.0 5.0 0.00 0.00 0.00 77 1007.6
20260903065535 69 5 2.0 9.0 0.00 0.00 0.00 77 1007.6
20260903065034 69 360 3.0 9.0 0.00 0.00 0.00 78 1007.5
20260903064533 69 9 3.0 7.0 0.00 0.00 0.00 78 1007.6
20260903064034 69 5 2.0 4.0 0.00 0.00 0.00 78 1007.7
20260903063533 69 5 1.0 5.0 0.00 0.00 0.00 78 1007.8
20260903063032 69 5 2.0 5.0 0.00 0.00 0.00 78 1007.7
20260903062532 69 5 2.0 6.0 0.00 0.00 0.00 78 1007.7
20260903062031 69 10 2.0 6.0 0.00 0.00 0.00 78 1007.7
20260903061549 69 5 2.0 5.0 0.00 0.00 0.00 78 1007.8
20260903061030 69 5 2.0 5.0 0.00 0.00 0.00 78 1007.8
20260903060530 69 5 3.0 5.0 0.00 0.00 0.00 78 1007.9
20260903060028 69 360 2.0 6.0 0.00 0.00 0.00 78 1007.8
20260903055528 69 5 3.0 6.0 0.00 0.00 0.00 78 1007.8
20260903055027 69 360 3.0 7.0 0.00 0.00 0.00 78 1007.8
20260903054527 69 5 3.0 5.0 0.00 0.00 0.00 78 1007.8
20260903054027 69 5 2.0 5.0 0.00 0.00 0.00 78 1007.8
20260903053527 70 5 2.0 5.0 0.00 0.00 0.00 78 1007.8
20260903053025 70 5 2.0 6.0 0.00 0.00 0.00 78 1007.9
20260903052525 70 9 3.0 6.0 0.00 0.00 0.00 78 1007.9
20260903052026 70 5 2.0 6.0 0.00 0.00 0.00 78 1007.9
20260903051523 70 12 2.0 6.0 0.00 0.00 0.00 77 1008.0
20260903051021 70 5 3.0 6.0 0.00 0.00 0.00 77 1008.1
20260903050520 70 5 2.0 6.0 0.00 0.00 0.00 77 1008.2
20260903050020 70 360 2.0 5.0 0.00 0.00 0.00 77 1008.2
20260903045520 70 9 1.0 8.0 0.00 0.00 0.00 77 1008.2